Wetterdaten: Sonntag, 24.06.2012
Datum Zeit Temperatur Luftfeuchte Regen Wind Richtung Richtung Taupunkt Windchill Windben
24.06.2012 00:00 11,0 C 85 % 0,0 l/m 0,0 km/h (0 Bft) S 180 8,6 C 10,3 C 0,0 km/h (0 Bft)
24.06.2012 00:05 11,0 C 85 % 0,0 l/m 0,0 km/h (0 Bft) S 180 8,6 C 10,3 C 0,0 km/h (0 Bft)
24.06.2012 00:10 11,0 C 86 % 0,0 l/m 0,0 km/h (0 Bft) N-NO 22 8,7 C 10,2 C 0,0 km/h (0 Bft)
24.06.2012 00:15 10,9 C 86 % 0,0 l/m 0,0 km/h (0 Bft) N-NO 22 8,7 C 10,2 C 0,0 km/h (0 Bft)
24.06.2012 00:20 10,8 C 86 % 0,0 l/m 0,0 km/h (0 Bft) N-NW 337 8,6 C 10,2 C 0,0 km/h (0 Bft)
24.06.2012 00:25 10,7 C 86 % 0,0 l/m 0,0 km/h (0 Bft) N 360 8,5 C 10,2 C 0,0 km/h (0 Bft)
24.06.2012 00:30 10,7 C 87 % 0,0 l/m 0,0 km/h (0 Bft) S 180 8,6 C 10,1 C 0,0 km/h (0 Bft)
24.06.2012 00:35 10,7 C 87 % 0,0 l/m 0,0 km/h (0 Bft) NO 45 8,6 C 10,1 C 0,0 km/h (0 Bft)
24.06.2012 00:40 10,9 C 87 % 0,0 l/m 0,0 km/h (0 Bft) NO 45 8,8 C 10,0 C 0,0 km/h (0 Bft)
24.06.2012 00:45 11,0 C 87 % 0,0 l/m 0,0 km/h (0 Bft) N-NO 22 8,9 C 10,0 C 0,0 km/h (0 Bft)
24.06.2012 00:50 10,8 C 87 % 0,0 l/m 0,0 km/h (0 Bft) N-NO 22 8,7 C 10,0 C 0,0 km/h (0 Bft)
24.06.2012 00:55 10,7 C 87 % 0,0 l/m 0,0 km/h (0 Bft) O-SO 112 8,6 C 10,0 C 0,0 km/h (0 Bft)
24.06.2012 01:00 10,7 C 87 % 0,0 l/m 0,0 km/h (0 Bft) O-SO 112 8,6 C 10,0 C 0,0 km/h (0 Bft)
24.06.2012 01:05 10,6 C 87 % 0,0 l/m 0,0 km/h (0 Bft) S-SO 157 8,5 C 10,0 C 0,0 km/h (0 Bft)
24.06.2012 01:10 10,5 C 87 % 0,0 l/m 0,0 km/h (0 Bft) NO 45 8,4 C 10,0 C 0,0 km/h (0 Bft)
24.06.2012 01:15 10,6 C 87 % 0,0 l/m 0,0 km/h (0 Bft) NO 45 8,5 C 9,9 C 0,0 km/h (0 Bft)
24.06.2012 01:20 10,5 C 87 % 0,0 l/m 0,0 km/h (0 Bft) W-NW 292 8,4 C 9,8 C 0,0 km/h (0 Bft)
24.06.2012 01:25 10,4 C 87 % 0,0 l/m 0,0 km/h (0 Bft) W 270 8,3 C 9,8 C 0,0 km/h (0 Bft)
24.06.2012 01:30 10,6 C 88 % 0,0 l/m 0,0 km/h (0 Bft) W-NW 292 8,7 C 9,8 C 0,0 km/h (0 Bft)
24.06.2012 01:35 10,6 C 88 % 0,0 l/m 0,0 km/h (0 Bft) NO 45 8,7 C 9,7 C 0,0 km/h (0 Bft)
24.06.2012 01:40 10,2 C 88 % 0,0 l/m 0,0 km/h (0 Bft) O-SO 112 8,3 C 9,6 C 0,0 km/h (0 Bft)
24.06.2012 01:45 10,1 C 87 % 0,0 l/m 0,0 km/h (0 Bft) O-SO 112 8,0 C 9,5 C 0,0 km/h (0 Bft)
24.06.2012 01:50 9,9 C 88 % 0,0 l/m 0,0 km/h (0 Bft) N-NW 337 8,0 C 9,3 C 0,0 km/h (0 Bft)
24.06.2012 01:55 9,9 C 88 % 0,0 l/m 0,0 km/h (0 Bft) O-NO 67 8,0 C 9,3 C 0,0 km/h (0 Bft)
24.06.2012 02:00 9,8 C 88 % 0,0 l/m 0,0 km/h (0 Bft) N-NO 22 7,9 C 9,3 C 0,0 km/h (0 Bft)
24.06.2012 02:05 9,8 C 88 % 0,0 l/m 0,0 km/h (0 Bft) W-NW 292 7,9 C 9,2 C 0,0 km/h (0 Bft)
24.06.2012 02:10 9,8 C 88 % 0,0 l/m 0,0 km/h (0 Bft) S 180 7,9 C 9,1 C 0,0 km/h (0 Bft)
24.06.2012 02:15 9,7 C 88 % 0,0 l/m 0,0 km/h (0 Bft) N-NO 22 7,8 C 9,0 C 0,0 km/h (0 Bft)
24.06.2012 02:20 9,8 C 89 % 0,0 l/m 0,0 km/h (0 Bft) O 90 8,1 C 9,1 C 0,0 km/h (0 Bft)
24.06.2012 02:25 9,7 C 89 % 0,0 l/m 0,0 km/h (0 Bft) N 360 8,0 C 9,1 C 0,0 km/h (0 Bft)
24.06.2012 02:30 9,7 C 89 % 0,0 l/m 0,0 km/h (0 Bft) N-NO 22 8,0 C 9,2 C 0,0 km/h (0 Bft)
24.06.2012 02:35 9,7 C 89 % 0,0 l/m 0,0 km/h (0 Bft) N 360 8,0 C 9,2 C 0,0 km/h (0 Bft)
24.06.2012 02:40 9,7 C 89 % 0,0 l/m 0,0 km/h (0 Bft) W 270 8,0 C 9,1 C 0,0 km/h (0 Bft)
24.06.2012 02:45 9,7 C 89 % 0,0 l/m 0,0 km/h (0 Bft) W 270 8,0 C 9,1 C 0,0 km/h (0 Bft)
24.06.2012 02:50 9,6 C 89 % 0,0 l/m 0,0 km/h (0 Bft) N 360 7,9 C 8,9 C 0,0 km/h (0 Bft)
24.06.2012 02:55 9,6 C 89 % 0,0 l/m 0,0 km/h (0 Bft) W 270 7,9 C 9,0 C 0,0 km/h (0 Bft)
24.06.2012 03:00 9,5 C 89 % 0,0 l/m 0,0 km/h (0 Bft) N-NW 337 7,8 C 9,1 C 0,0 km/h (0 Bft)
24.06.2012 03:05 9,5 C 89 % 0,0 l/m 0,0 km/h (0 Bft) S-SW 202 7,8 C 9,1 C 0,0 km/h (0 Bft)
24.06.2012 03:10 9,5 C 89 % 0,0 l/m 0,0 km/h (0 Bft) W 270 7,8 C 9,0 C 0,0 km/h (0 Bft)
24.06.2012 03:15 9,5 C 89 % 0,0 l/m 0,0 km/h (0 Bft) W-SW 247 7,8 C 8,9 C 0,0 km/h (0 Bft)
24.06.2012 03:20 9,5 C 90 % 0,0 l/m 0,0 km/h (0 Bft) N-NW 337 7,9 C 8,9 C 0,0 km/h (0 Bft)
24.06.2012 03:25 9,4 C 90 % 0,0 l/m 0,0 km/h (0 Bft) SW 225 7,8 C 8,9 C 0,0 km/h (0 Bft)
24.06.2012 03:30 9,3 C 90 % 0,0 l/m 0,0 km/h (0 Bft) N 360 7,7 C 8,9 C 0,0 km/h (0 Bft)
24.06.2012 03:35 9,3 C 90 % 0,0 l/m 0,0 km/h (0 Bft) N 360 7,7 C 8,8 C 0,0 km/h (0 Bft)
24.06.2012 03:40 9,3 C 90 % 0,0 l/m 0,0 km/h (0 Bft) N-NW 337 7,7 C 8,7 C 0,0 km/h (0 Bft)
24.06.2012 03:45 9,3 C 90 % 0,0 l/m 0,0 km/h (0 Bft) W-NW 292 7,7 C 8,7 C 0,0 km/h (0 Bft)
24.06.2012 03:50 9,1 C 90 % 0,0 l/m 0,0 km/h (0 Bft) N-NO 22 7,5 C 8,8 C 0,0 km/h (0 Bft)
24.06.2012 03:55 9,1 C 90 % 0,0 l/m 0,0 km/h (0 Bft) N-NW 337 7,5 C 8,7 C 0,0 km/h (0 Bft)
24.06.2012 04:00 9,1 C 90 % 0,0 l/m 0,0 km/h (0 Bft) N-NW 337 7,5 C 8,7 C 0,0 km/h (0 Bft)
24.06.2012 04:05 9,0 C 90 % 0,0 l/m 0,0 km/h (0 Bft) N 360 7,4 C 8,7 C 0,0 km/h (0 Bft)
24.06.2012 04:10 9,2 C 90 % 0,0 l/m 0,0 km/h (0 Bft) W 270 7,6 C 8,5 C 0,0 km/h (0 Bft)
24.06.2012 04:15 9,1 C 90 % 0,0 l/m 0,0 km/h (0 Bft) NW 315 7,5 C 8,6 C 0,0 km/h (0 Bft)
24.06.2012 04:20 9,2 C 90 % 0,0 l/m 0,0 km/h (0 Bft) N 360 7,6 C 8,7 C 0,0 km/h (0 Bft)
24.06.2012 04:25 9,2 C 90 % 0,0 l/m 0,0 km/h (0 Bft) N-NO 22 7,6 C 8,7 C 0,0 km/h (0 Bft)
24.06.2012 04:30 9,2 C 90 % 0,0 l/m 0,0 km/h (0 Bft) N-NO 22 7,6 C 8,7 C 0,0 km/h (0 Bft)
24.06.2012 04:35 9,1 C 90 % 0,0 l/m 0,0 km/h (0 Bft) N 360 7,5 C 8,7 C 0,0 km/h (0 Bft)
24.06.2012 04:40 9,1 C 90 % 0,0 l/m 0,0 km/h (0 Bft) W 270 7,5 C 8,6 C 0,0 km/h (0 Bft)
24.06.2012 04:45 9,1 C 90 % 0,0 l/m 0,0 km/h (0 Bft) N-NO 22 7,5 C 8,5 C 0,0 km/h (0 Bft)
24.06.2012 04:50 9,1 C 90 % 0,0 l/m 0,0 km/h (0 Bft) N-NW 337 7,5 C 8,5 C 0,0 km/h (0 Bft)
24.06.2012 04:55 9,1 C 91 % 0,0 l/m 0,0 km/h (0 Bft) W 270 7,7 C 8,6 C 0,0 km/h (0 Bft)
24.06.2012 05:00 9,2 C 91 % 0,0 l/m 0,0 km/h (0 Bft) W-NW 292 7,8 C 8,7 C 0,0 km/h (0 Bft)
24.06.2012 05:05 9,2 C 91 % 0,0 l/m 0,0 km/h (0 Bft) N-NW 337 7,8 C 8,7 C 0,0 km/h (0 Bft)
24.06.2012 05:10 9,1 C 91 % 0,0 l/m 0,0 km/h (0 Bft) NW 315 7,7 C 8,7 C 0,0 km/h (0 Bft)
24.06.2012 05:15 9,1 C 91 % 0,0 l/m 0,0 km/h (0 Bft) N-NW 337 7,7 C 8,6 C 0,0 km/h (0 Bft)
24.06.2012 05:20 9,2 C 91 % 0,0 l/m 0,0 km/h (0 Bft) N-NW 337 7,8 C 8,6 C 0,0 km/h (0 Bft)
24.06.2012 05:25 9,3 C 91 % 0,0 l/m 0,0 km/h (0 Bft) N-NW 337 7,9 C 8,6 C 0,0 km/h (0 Bft)
24.06.2012 05:30 9,2 C 91 % 0,0 l/m 0,0 km/h (0 Bft) N-NW 337 7,8 C 8,7 C 0,0 km/h (0 Bft)
24.06.2012 05:35 9,3 C 91 % 0,0 l/m 0,0 km/h (0 Bft) S 180 7,9 C 8,7 C 0,0 km/h (0 Bft)
24.06.2012 05:40 9,2 C 91 % 0,0 l/m 0,0 km/h (0 Bft) O-NO 67 7,8 C 8,7 C 0,0 km/h (0 Bft)
24.06.2012 05:45 9,2 C 91 % 0,0 l/m 0,0 km/h (0 Bft) S 180 7,8 C 8,7 C 0,0 km/h (0 Bft)
24.06.2012 05:50 9,4 C 91 % 0,0 l/m 0,0 km/h (0 Bft) NW 315 8,0 C 9,3 C 0,0 km/h (0 Bft)
24.06.2012 05:55 9,5 C 91 % 0,0 l/m 0,0 km/h (0 Bft) W-NW 292 8,1 C 9,3 C 0,0 km/h (0 Bft)
24.06.2012 06:00 9,5 C 91 % 0,0 l/m 0,0 km/h (0 Bft) O-SO 112 8,1 C 9,6 C 0,0 km/h (0 Bft)
24.06.2012 06:05 9,6 C 91 % 0,0 l/m 0,0 km/h (0 Bft) N-NW 337 8,2 C 10,0 C 0,0 km/h (0 Bft)
24.06.2012 06:10 10,4 C 91 % 0,0 l/m 0,0 km/h (0 Bft) W-NW 292 9,0 C 11,0 C 0,0 km/h (0 Bft)
24.06.2012 06:15 10,6 C 91 % 0,0 l/m 0,0 km/h (0 Bft) N-NO 22 9,2 C 11,4 C 0,0 km/h (0 Bft)
24.06.2012 06:20 11,1 C 91 % 0,0 l/m 0,0 km/h (0 Bft) N 360 9,7 C 12,0 C 0,0 km/h (0 Bft)
24.06.2012 06:25 11,4 C 91 % 0,0 l/m 0,0 km/h (0 Bft) W 270 10,0 C 12,2 C 0,0 km/h (0 Bft)
24.06.2012 06:30 12,0 C 88 % 0,0 l/m 0,0 km/h (0 Bft) N-NO 22 10,4 C 13,0 C 0,0 km/h (0 Bft)
24.06.2012 06:35 12,9 C 86 % 0,0 l/m 0,0 km/h (0 Bft) NO 45 10,8 C 13,6 C 0,0 km/h (0 Bft)
24.06.2012 06:40 14,3 C 84 % 0,0 l/m 0,0 km/h (0 Bft) O-SO 112 12,0 C 14,7 C 0,0 km/h (0 Bft)
24.06.2012 06:45 14,6 C 82 % 0,0 l/m 0,0 km/h (0 Bft) SW 225 11,9 C 14,8 C 0,0 km/h (0 Bft)
24.06.2012 06:50 15,7 C 77 % 0,0 l/m 0,0 km/h (0 Bft) N-NO 22 11,7 C 16,2 C 0,0 km/h (0 Bft)
24.06.2012 06:55 15,9 C 73 % 0,0 l/m 0,0 km/h (0 Bft) N-NW 337 11,1 C 17,0 C 0,0 km/h (0 Bft)
24.06.2012 07:00 15,9 C 72 % 0,0 l/m 0,0 km/h (0 Bft) N 360 10,9 C 17,0 C 0,0 km/h (0 Bft)
24.06.2012 07:05 16,4 C 71 % 0,0 l/m 0,0 km/h (0 Bft) O-NO 67 11,1 C 17,4 C 0,0 km/h (0 Bft)
24.06.2012 07:10 17,0 C 70 % 0,0 l/m 0,0 km/h (0 Bft) N-NO 22 11,5 C 17,8 C 0,0 km/h (0 Bft)
24.06.2012 07:15 18,0 C 68 % 0,0 l/m 0,0 km/h (0 Bft) N-NW 337 12,0 C 18,6 C 0,0 km/h (0 Bft)
24.06.2012 07:20 18,7 C 64 % 0,0 l/m 0,0 km/h (0 Bft) O-SO 112 11,7 C 19,7 C 0,0 km/h (0 Bft)
24.06.2012 07:25 19,0 C 65 % 0,0 l/m 0,0 km/h (0 Bft) NW 315 12,3 C 20,0 C 0,0 km/h (0 Bft)
24.06.2012 07:30 19,8 C 62 % 0,0 l/m 0,5 km/h (0 Bft) O-SO 112 12,3 C 20,6 C 0,0 km/h (0 Bft)
24.06.2012 07:35 20,3 C 62 % 0,0 l/m 0,5 km/h (0 Bft) O-SO 112 12,8 C 21,3 C 0,0 km/h (0 Bft)
24.06.2012 07:40 21,1 C 60 % 0,0 l/m 0,5 km/h (0 Bft) N-NO 22 13,0 C 22,0 C 4,3 km/h (1 Bft)
24.06.2012 07:45 21,4 C 58 % 0,0 l/m 0,5 km/h (0 Bft) N 360 12,8 C 22,2 C 0,0 km/h (0 Bft)
24.06.2012 07:50 22,0 C 57 % 0,0 l/m 0,2 km/h (0 Bft) N 360 13,1 C 23,4 C 1,6 km/h (1 Bft)
24.06.2012 07:55 22,4 C 58 % 0,0 l/m 0,0 km/h (0 Bft) N-NW 337 13,7 C 23,9 C 0,0 km/h (0 Bft)
24.06.2012 08:00 23,4 C 54 % 0,0 l/m 0,5 km/h (0 Bft) O-SO 112 13,6 C 24,5 C 2,7 km/h (1 Bft)
24.06.2012 08:05 23,5 C 53 % 0,0 l/m 0,5 km/h (0 Bft) SO 135 13,4 C 24,6 C 0,0 km/h (0 Bft)
24.06.2012 08:10 22,8 C 53 % 0,0 l/m 0,8 km/h (0 Bft) O 90 12,7 C 25,1 C 0,0 km/h (0 Bft)
24.06.2012 08:15 22,6 C 54 % 0,0 l/m 0,5 km/h (0 Bft) S-SW 202 12,8 C 25,6 C 1,6 km/h (1 Bft)
24.06.2012 08:20 23,2 C 52 % 0,0 l/m 0,2 km/h (0 Bft) O-SO 112 12,8 C 25,9 C 0,0 km/h (0 Bft)
24.06.2012 08:25 23,5 C 53 % 0,0 l/m 0,2 km/h (0 Bft) N-NO 22 13,4 C 26,1 C 0,0 km/h (0 Bft)
24.06.2012 08:30 23,7 C 49 % 0,0 l/m 0,3 km/h (0 Bft) S 180 12,3 C 26,7 C 0,0 km/h (0 Bft)
24.06.2012 08:35 23,9 C 50 % 0,0 l/m 0,5 km/h (0 Bft) S 180 12,8 C 27,1 C 1,6 km/h (1 Bft)
24.06.2012 08:40 23,3 C 48 % 0,0 l/m 0,3 km/h (0 Bft) S-SO 157 12,5 C 27,5 C 2,7 km/h (1 Bft)
24.06.2012 08:45 23,2 C 48 % 0,0 l/m 0,6 km/h (0 Bft) O-SO 112 13,2 C 27,5 C 5,0 km/h (1 Bft)
24.06.2012 08:50 23,0 C 48 % 0,0 l/m 1,0 km/h (0 Bft) O-SO 112 12,7 C 27,5 C 0,0 km/h (0 Bft)
24.06.2012 08:55 22,8 C 49 % 0,0 l/m 0,6 km/h (0 Bft) S-SO 157 13,5 C 28,0 C 1,8 km/h (1 Bft)
24.06.2012 09:00 23,3 C 46 % 0,0 l/m 1,4 km/h (1 Bft) S-SO 157 13,3 C 27,9 C 2,1 km/h (1 Bft)
24.06.2012 09:05 23,5 C 44 % 0,0 l/m 1,8 km/h (1 Bft) SO 135 12,9 C 27,8 C 1,6 km/h (1 Bft)
24.06.2012 09:10 23,6 C 43 % 0,0 l/m 1,3 km/h (1 Bft) SO 135 12,4 C 28,3 C 2,4 km/h (1 Bft)
24.06.2012 09:15 23,7 C 42 % 0,0 l/m 1,1 km/h (1 Bft) S 180 12,3 C 28,3 C 3,7 km/h (1 Bft)
24.06.2012 09:20 23,9 C 45 % 0,0 l/m 1,3 km/h (1 Bft) O 90 13,7 C 28,0 C 2,3 km/h (1 Bft)
24.06.2012 09:25 23,9 C 42 % 0,0 l/m 1,4 km/h (1 Bft) W-SW 247 12,3 C 28,0 C 3,2 km/h (1 Bft)
24.06.2012 09:30 24,3 C 41 % 0,0 l/m 1,8 km/h (1 Bft) S-SW 202 12,6 C 28,4 C 0,0 km/h (0 Bft)
24.06.2012 09:35 24,7 C 40 % 0,0 l/m 2,3 km/h (1 Bft) S 180 12,1 C 28,6 C 3,1 km/h (1 Bft)
24.06.2012 09:40 23,9 C 45 % 0,0 l/m 2,6 km/h (1 Bft) S 180 11,8 C 27,5 C 5,5 km/h (1 Bft)
24.06.2012 09:45 23,9 C 46 % 0,0 l/m 2,7 km/h (1 Bft) NO 45 12,2 C 26,8 C 1,9 km/h (1 Bft)
24.06.2012 09:50 23,5 C 48 % 0,0 l/m 1,4 km/h (1 Bft) SO 135 11,8 C 25,9 C 1,6 km/h (1 Bft)
24.06.2012 09:55 23,9 C 47 % 0,0 l/m 0,6 km/h (0 Bft) S 180 12,5 C 25,9 C 2,1 km/h (1 Bft)
24.06.2012 10:00 24,7 C 44 % 0,0 l/m 1,4 km/h (1 Bft) SO 135 12,8 C 26,9 C 3,7 km/h (1 Bft)
24.06.2012 10:05 24,7 C 43 % 0,0 l/m 2,1 km/h (1 Bft) SO 135 12,7 C 27,1 C 3,5 km/h (1 Bft)
24.06.2012 10:10 24,8 C 41 % 0,0 l/m 3,1 km/h (1 Bft) O-SO 112 11,7 C 27,5 C 5,8 km/h (2 Bft)
24.06.2012 10:15 25,2 C 40 % 0,0 l/m 2,3 km/h (1 Bft) W-SW 247 11,3 C 27,8 C 1,8 km/h (1 Bft)
24.06.2012 10:20 25,2 C 42 % 0,0 l/m 1,6 km/h (1 Bft) SO 135 12,1 C 28,1 C 4,2 km/h (1 Bft)
24.06.2012 10:25 25,3 C 42 % 0,0 l/m 1,8 km/h (1 Bft) S-SW 202 12,2 C 28,1 C 1,8 km/h (1 Bft)
24.06.2012 10:30 25,6 C 41 % 0,0 l/m 2,1 km/h (1 Bft) NO 45 11,8 C 28,0 C 0,0 km/h (0 Bft)
24.06.2012 10:35 25,8 C 42 % 0,0 l/m 2,1 km/h (1 Bft) O 90 12,1 C 28,5 C 3,7 km/h (1 Bft)
24.06.2012 10:40 26,0 C 43 % 0,0 l/m 2,3 km/h (1 Bft) S-SO 157 12,8 C 28,3 C 7,2 km/h (2 Bft)
24.06.2012 10:45 26,1 C 42 % 0,0 l/m 2,3 km/h (1 Bft) S 180 12,4 C 28,3 C 0,0 km/h (0 Bft)
24.06.2012 10:50 26,0 C 40 % 0,0 l/m 2,3 km/h (1 Bft) S-SW 202 11,3 C 28,5 C 6,6 km/h (2 Bft)
24.06.2012 10:55 25,7 C 43 % 0,0 l/m 3,7 km/h (1 Bft) S-SO 157 12,2 C 28,0 C 3,7 km/h (1 Bft)
24.06.2012 11:00 25,3 C 45 % 0,0 l/m 5,3 km/h (1 Bft) S-SO 157 12,5 C 27,2 C 10,9 km/h (2 Bft)
24.06.2012 11:05 25,1 C 42 % 0,0 l/m 5,8 km/h (2 Bft) SO 135 11,3 C 26,9 C 6,4 km/h (2 Bft)
24.06.2012 11:10 25,7 C 43 % 0,0 l/m 5,8 km/h (2 Bft) N-NO 22 12,2 C 26,5 C 5,3 km/h (1 Bft)
24.06.2012 11:15 25,3 C 42 % 0,0 l/m 6,1 km/h (2 Bft) SO 135 11,5 C 26,3 C 4,8 km/h (1 Bft)
24.06.2012 11:20 25,5 C 44 % 0,0 l/m 6,8 km/h (2 Bft) S 180 12,3 C 26,0 C 11,6 km/h (2 Bft)
24.06.2012 11:25 25,2 C 44 % 0,0 l/m 7,2 km/h (2 Bft) S-SO 157 12,1 C 25,9 C 6,8 km/h (2 Bft)
24.06.2012 11:30 25,2 C 45 % 0,0 l/m 7,1 km/h (2 Bft) O-SO 112 12,4 C 25,5 C 8,2 km/h (2 Bft)
24.06.2012 11:35 25,3 C 44 % 0,0 l/m 6,6 km/h (2 Bft) W 270 12,2 C 25,6 C 6,1 km/h (2 Bft)
24.06.2012 11:40 25,4 C 44 % 0,0 l/m 6,6 km/h (2 Bft) S 180 12,2 C 25,9 C 13,5 km/h (3 Bft)
24.06.2012 11:45 25,8 C 43 % 0,0 l/m 6,3 km/h (2 Bft) S 180 12,3 C 25,9 C 4,0 km/h (1 Bft)
24.06.2012 11:50 25,7 C 43 % 0,0 l/m 7,2 km/h (2 Bft) S 180 12,2 C 25,7 C 5,3 km/h (1 Bft)
24.06.2012 11:55 25,9 C 44 % 0,0 l/m 7,2 km/h (2 Bft) O-SO 112 12,7 C 25,7 C 10,3 km/h (2 Bft)
24.06.2012 12:00 25,2 C 43 % 0,0 l/m 6,8 km/h (2 Bft) SO 135 11,7 C 25,8 C 14,0 km/h (3 Bft)
24.06.2012 12:05 26,1 C 42 % 0,0 l/m 6,6 km/h (2 Bft) SO 135 12,2 C 25,7 C 6,3 km/h (2 Bft)
24.06.2012 12:10 26,1 C 40 % 0,0 l/m 7,4 km/h (2 Bft) SO 135 11,4 C 25,8 C 14,8 km/h (3 Bft)
24.06.2012 12:15 26,1 C 39 % 0,0 l/m 7,4 km/h (2 Bft) S-SO 157 11,0 C 25,9 C 7,9 km/h (2 Bft)
24.06.2012 12:20 25,9 C 39 % 0,0 l/m 6,9 km/h (2 Bft) SO 135 10,9 C 26,2 C 3,4 km/h (1 Bft)
24.06.2012 12:25 25,9 C 39 % 0,0 l/m 6,8 km/h (2 Bft) O-SO 112 10,9 C 26,2 C 9,2 km/h (2 Bft)
24.06.2012 12:30 26,0 C 39 % 0,0 l/m 7,4 km/h (2 Bft) SO 135 11,0 C 26,3 C 7,4 km/h (2 Bft)
24.06.2012 12:35 25,2 C 41 % 0,0 l/m 8,2 km/h (2 Bft) SO 135 11,0 C 25,6 C 11,3 km/h (2 Bft)
24.06.2012 12:40 25,2 C 41 % 0,0 l/m 8,2 km/h (2 Bft) SO 135 11,0 C 25,0 C 15,0 km/h (3 Bft)
24.06.2012 12:45 26,1 C 39 % 0,0 l/m 8,4 km/h (2 Bft) S-SO 157 11,0 C 25,0 C 10,8 km/h (2 Bft)
24.06.2012 12:50 25,8 C 38 % 0,0 l/m 8,0 km/h (2 Bft) SO 135 10,4 C 25,7 C 6,1 km/h (2 Bft)
24.06.2012 12:55 25,2 C 39 % 0,0 l/m 8,2 km/h (2 Bft) NO 45 10,2 C 25,3 C 6,6 km/h (2 Bft)
24.06.2012 13:00 26,3 C 39 % 0,0 l/m 7,6 km/h (2 Bft) O-SO 112 11,2 C 25,6 C 15,8 km/h (3 Bft)
24.06.2012 13:05 26,2 C 37 % 0,0 l/m 7,4 km/h (2 Bft) O-SO 112 10,3 C 25,9 C 8,9 km/h (2 Bft)
24.06.2012 13:10 26,3 C 37 % 0,0 l/m 6,4 km/h (2 Bft) SO 135 10,4 C 26,5 C 3,7 km/h (1 Bft)
24.06.2012 13:15 26,0 C 38 % 0,0 l/m 5,6 km/h (1 Bft) S 180 10,6 C 26,7 C 5,1 km/h (1 Bft)
24.06.2012 13:20 26,7 C 39 % 0,0 l/m 4,3 km/h (1 Bft) S 180 11,6 C 27,2 C 5,0 km/h (1 Bft)
24.06.2012 13:25 26,6 C 40 % 0,0 l/m 4,2 km/h (1 Bft) S-SW 202 11,9 C 27,4 C 6,3 km/h (2 Bft)
24.06.2012 13:30 26,6 C 40 % 0,0 l/m 5,8 km/h (2 Bft) S-SO 157 11,9 C 27,0 C 5,1 km/h (1 Bft)
24.06.2012 13:35 26,6 C 39 % 0,0 l/m 6,3 km/h (2 Bft) SO 135 11,5 C 26,7 C 5,5 km/h (1 Bft)
24.06.2012 13:40 26,4 C 40 % 0,0 l/m 6,0 km/h (2 Bft) S-SO 157 11,7 C 26,3 C 5,8 km/h (2 Bft)
24.06.2012 13:45 26,3 C 39 % 0,0 l/m 6,6 km/h (2 Bft) S 180 11,2 C 26,4 C 10,0 km/h (2 Bft)
24.06.2012 13:50 26,3 C 39 % 0,0 l/m 7,4 km/h (2 Bft) O-SO 112 11,2 C 26,3 C 9,7 km/h (2 Bft)
24.06.2012 13:55 26,2 C 38 % 0,0 l/m 7,9 km/h (2 Bft) S 180 10,7 C 26,1 C 9,7 km/h (2 Bft)
24.06.2012 14:00 26,2 C 39 % 0,0 l/m 7,2 km/h (2 Bft) S-SO 157 11,1 C 26,3 C 5,5 km/h (1 Bft)
24.06.2012 14:05 26,1 C 39 % 0,0 l/m 6,9 km/h (2 Bft) S-SO 157 11,0 C 26,5 C 8,7 km/h (2 Bft)
24.06.2012 14:10 26,3 C 40 % 0,0 l/m 5,6 km/h (1 Bft) S-SO 157 11,6 C 27,1 C 10,0 km/h (2 Bft)
24.06.2012 14:15 26,5 C 40 % 0,0 l/m 5,3 km/h (1 Bft) S-SW 202 11,8 C 27,2 C 5,6 km/h (1 Bft)
24.06.2012 14:20 26,2 C 38 % 0,0 l/m 6,0 km/h (2 Bft) S 180 10,7 C 27,3 C 4,5 km/h (1 Bft)
24.06.2012 14:25 26,4 C 40 % 0,0 l/m 6,0 km/h (2 Bft) SO 135 11,7 C 27,2 C 8,7 km/h (2 Bft)
24.06.2012 14:30 26,6 C 40 % 0,0 l/m 6,4 km/h (2 Bft) O-SO 112 11,9 C 27,2 C 8,2 km/h (2 Bft)
24.06.2012 14:35 26,8 C 40 % 0,0 l/m 6,4 km/h (2 Bft) S 180 12,1 C 27,4 C 8,9 km/h (2 Bft)
24.06.2012 14:40 26,9 C 39 % 0,0 l/m 6,3 km/h (2 Bft) S 180 11,8 C 27,6 C 5,5 km/h (1 Bft)
24.06.2012 14:45 26,6 C 38 % 0,0 l/m 6,6 km/h (2 Bft) SO 135 11,1 C 27,7 C 7,9 km/h (2 Bft)
24.06.2012 14:50 26,1 C 42 % 0,0 l/m 6,3 km/h (2 Bft) S-SO 157 12,2 C 27,5 C 16,7 km/h (3 Bft)
24.06.2012 14:55 26,1 C 40 % 0,0 l/m 6,3 km/h (2 Bft) O-SO 112 11,4 C 27,4 C 5,1 km/h (1 Bft)
24.06.2012 15:00 25,7 C 43 % 0,0 l/m 6,4 km/h (2 Bft) S 180 12,2 C 27,3 C 13,7 km/h (3 Bft)
24.06.2012 15:05 25,4 C 42 % 0,0 l/m 6,6 km/h (2 Bft) O-SO 112 11,5 C 27,3 C 10,9 km/h (2 Bft)
24.06.2012 15:10 25,2 C 45 % 0,0 l/m 7,7 km/h (2 Bft) S 180 12,4 C 26,2 C 9,0 km/h (2 Bft)
24.06.2012 15:15 25,3 C 45 % 0,0 l/m 7,2 km/h (2 Bft) S-SO 157 12,5 C 26,2 C 7,4 km/h (2 Bft)
24.06.2012 15:20 25,5 C 44 % 0,0 l/m 6,9 km/h (2 Bft) O-SO 112 12,3 C 26,3 C 8,7 km/h (2 Bft)
24.06.2012 15:25 25,4 C 45 % 0,0 l/m 7,1 km/h (2 Bft) SO 135 12,6 C 26,3 C 11,9 km/h (2 Bft)
24.06.2012 15:30 24,8 C 44 % 0,0 l/m 7,6 km/h (2 Bft) S-SO 157 11,7 C 25,6 C 6,6 km/h (2 Bft)
24.06.2012 15:35 25,0 C 46 % 0,0 l/m 6,1 km/h (2 Bft) S-SW 202 12,6 C 26,0 C 8,7 km/h (2 Bft)
24.06.2012 15:40 24,4 C 46 % 0,0 l/m 6,6 km/h (2 Bft) SO 135 12,0 C 25,8 C 8,5 km/h (2 Bft)
24.06.2012 15:45 24,2 C 47 % 0,0 l/m 6,8 km/h (2 Bft) S 180 12,2 C 25,6 C 6,4 km/h (2 Bft)
24.06.2012 15:50 24,1 C 47 % 0,0 l/m 6,3 km/h (2 Bft) O-SO 112 12,1 C 25,1 C 3,2 km/h (1 Bft)
24.06.2012 15:55 24,1 C 48 % 0,0 l/m 6,1 km/h (2 Bft) SO 135 12,4 C 25,1 C 8,7 km/h (2 Bft)
24.06.2012 16:00 23,7 C 49 % 0,0 l/m 6,3 km/h (2 Bft) SO 135 12,3 C 24,7 C 7,6 km/h (2 Bft)
24.06.2012 16:05 23,9 C 50 % 0,0 l/m 6,4 km/h (2 Bft) S 180 12,8 C 24,6 C 4,7 km/h (1 Bft)
24.06.2012 16:10 23,9 C 49 % 0,0 l/m 4,0 km/h (1 Bft) SO 135 12,5 C 24,9 C 6,3 km/h (2 Bft)
24.06.2012 16:15 23,8 C 50 % 0,0 l/m 3,9 km/h (1 Bft) S-SW 202 12,7 C 24,8 C 7,9 km/h (2 Bft)
24.06.2012 16:20 23,6 C 50 % 0,0 l/m 4,8 km/h (1 Bft) O-SO 112 12,6 C 24,6 C 3,5 km/h (1 Bft)
24.06.2012 16:25 23,6 C 50 % 0,0 l/m 4,3 km/h (1 Bft) S-SO 157 12,6 C 24,6 C 4,5 km/h (1 Bft)
24.06.2012 16:30 24,0 C 51 % 0,0 l/m 4,0 km/h (1 Bft) S-SO 157 13,2 C 24,9 C 6,9 km/h (2 Bft)
24.06.2012 16:35 24,0 C 51 % 0,0 l/m 4,2 km/h (1 Bft) S-SW 202 13,2 C 25,0 C 4,3 km/h (1 Bft)
24.06.2012 16:40 24,0 C 50 % 0,0 l/m 5,1 km/h (1 Bft) SO 135 12,9 C 24,9 C 10,5 km/h (2 Bft)
24.06.2012 16:45 23,7 C 51 % 0,0 l/m 5,1 km/h (1 Bft) S 180 13,0 C 24,8 C 6,6 km/h (2 Bft)
24.06.2012 16:50 23,8 C 53 % 0,0 l/m 5,0 km/h (1 Bft) S-SW 202 13,6 C 24,6 C 5,3 km/h (1 Bft)
24.06.2012 16:55 23,8 C 54 % 0,0 l/m 4,8 km/h (1 Bft) O-SO 112 13,9 C 24,5 C 3,5 km/h (1 Bft)
24.06.2012 17:00 23,4 C 53 % 0,0 l/m 5,1 km/h (1 Bft) SO 135 13,3 C 24,4 C 4,7 km/h (1 Bft)
24.06.2012 17:05 23,5 C 54 % 0,0 l/m 5,1 km/h (1 Bft) S-SO 157 13,6 C 24,2 C 5,1 km/h (1 Bft)
24.06.2012 17:10 23,6 C 52 % 0,0 l/m 4,8 km/h (1 Bft) O 90 13,2 C 24,4 C 10,5 km/h (2 Bft)
24.06.2012 17:15 23,5 C 52 % 0,0 l/m 6,0 km/h (2 Bft) O-SO 112 13,1 C 24,4 C 8,0 km/h (2 Bft)
24.06.2012 17:20 24,1 C 53 % 0,0 l/m 6,9 km/h (2 Bft) S 180 13,9 C 24,7 C 8,2 km/h (2 Bft)
24.06.2012 17:25 23,7 C 49 % 0,0 l/m 7,1 km/h (2 Bft) S-SO 157 12,3 C 24,9 C 13,7 km/h (3 Bft)
24.06.2012 17:30 23,3 C 52 % 0,0 l/m 8,2 km/h (2 Bft) S 180 12,9 C 24,4 C 17,4 km/h (3 Bft)
24.06.2012 17:35 23,2 C 50 % 0,0 l/m 7,9 km/h (2 Bft) O-SO 112 12,2 C 24,3 C 10,6 km/h (2 Bft)
24.06.2012 17:40 23,1 C 50 % 0,0 l/m 8,7 km/h (2 Bft) O-SO 112 12,1 C 23,9 C 7,1 km/h (2 Bft)
24.06.2012 17:45 23,4 C 48 % 0,0 l/m 8,5 km/h (2 Bft) O-SO 112 11,8 C 24,1 C 12,1 km/h (2 Bft)
24.06.2012 17:50 23,4 C 48 % 0,0 l/m 8,9 km/h (2 Bft) S 180 11,8 C 24,9 C 20,1 km/h (4 Bft)
24.06.2012 17:55 23,5 C 49 % 0,0 l/m 8,5 km/h (2 Bft) O-SO 112 12,2 C 25,1 C 13,5 km/h (3 Bft)
24.06.2012 18:00 23,3 C 49 % 0,0 l/m 7,6 km/h (2 Bft) O-SO 112 12,0 C 25,0 C 9,7 km/h (2 Bft)
24.06.2012 18:05 23,1 C 48 % 0,0 l/m 7,6 km/h (2 Bft) O-NO 67 11,5 C 24,8 C 12,2 km/h (2 Bft)
24.06.2012 18:08 22,4 C 49 % 0,0 l/m 6,8 km/h (2 Bft) SO 135 11,2 C 23,8 C 5,1 km/h (1 Bft)
24.06.2012 18:13 22,4 C 51 % 0,0 l/m 5,0 km/h (1 Bft) SO 135 11,8 C 23,5 C 6,9 km/h (2 Bft)
24.06.2012 18:18 22,3 C 51 % 0,0 l/m 4,8 km/h (1 Bft) S-SO 157 11,7 C 23,4 C 4,5 km/h (1 Bft)
24.06.2012 18:23 22,1 C 51 % 0,0 l/m 5,5 km/h (1 Bft) SO 135 11,5 C 23,0 C 7,6 km/h (2 Bft)
24.06.2012 18:28 21,8 C 49 % 0,0 l/m 6,3 km/h (2 Bft) S 180 10,6 C 22,6 C 11,4 km/h (2 Bft)
24.06.2012 18:33 21,5 C 52 % 0,0 l/m 7,2 km/h (2 Bft) O 90 11,2 C 21,9 C 6,6 km/h (2 Bft)
24.06.2012 18:38 21,4 C 53 % 0,0 l/m 7,1 km/h (2 Bft) O-SO 112 11,4 C 22,0 C 6,6 km/h (2 Bft)
24.06.2012 18:43 21,3 C 53 % 0,0 l/m 6,0 km/h (2 Bft) SO 135 11,3 C 21,9 C 7,2 km/h (2 Bft)
24.06.2012 18:48 21,2 C 54 % 0,0 l/m 6,0 km/h (2 Bft) SO 135 11,5 C 21,8 C 8,9 km/h (2 Bft)
24.06.2012 18:53 20,9 C 53 % 0,0 l/m 6,8 km/h (2 Bft) S 180 11,0 C 21,4 C 6,3 km/h (2 Bft)
24.06.2012 18:58 20,9 C 53 % 0,0 l/m 6,9 km/h (2 Bft) S 180 11,0 C 21,2 C 8,2 km/h (2 Bft)
24.06.2012 19:03 20,7 C 55 % 0,0 l/m 6,0 km/h (2 Bft) SO 135 11,3 C 21,2 C 6,8 km/h (2 Bft)
24.06.2012 19:08 20,7 C 54 % 0,0 l/m 6,0 km/h (2 Bft) SO 135 11,1 C 21,1 C 11,9 km/h (2 Bft)
24.06.2012 19:13 20,5 C 56 % 0,0 l/m 6,4 km/h (2 Bft) O-NO 67 11,4 C 21,0 C 6,3 km/h (2 Bft)
24.06.2012 19:18 20,5 C 56 % 0,0 l/m 6,1 km/h (2 Bft) SO 135 11,4 C 21,0 C 6,3 km/h (2 Bft)
24.06.2012 19:23 20,4 C 57 % 0,0 l/m 3,9 km/h (1 Bft) SO 135 11,6 C 20,9 C 3,4 km/h (1 Bft)
24.06.2012 19:28 20,3 C 58 % 0,0 l/m 4,5 km/h (1 Bft) NO 45 11,8 C 20,8 C 4,8 km/h (1 Bft)
24.06.2012 19:33 20,1 C 58 % 0,0 l/m 4,7 km/h (1 Bft) O-SO 112 11,6 C 20,6 C 3,1 km/h (1 Bft)
24.06.2012 19:38 20,0 C 59 % 0,0 l/m 5,0 km/h (1 Bft) O-NO 67 11,7 C 20,6 C 6,6 km/h (2 Bft)
24.06.2012 19:43 19,9 C 58 % 0,0 l/m 3,9 km/h (1 Bft) O 90 11,4 C 20,4 C 6,0 km/h (2 Bft)
24.06.2012 19:48 19,9 C 58 % 0,0 l/m 5,0 km/h (1 Bft) O-SO 112 11,4 C 20,3 C 4,2 km/h (1 Bft)
24.06.2012 19:53 19,7 C 59 % 0,0 l/m 6,1 km/h (2 Bft) O-SO 112 11,5 C 20,2 C 4,8 km/h (1 Bft)
24.06.2012 19:58 19,6 C 59 % 0,0 l/m 6,0 km/h (2 Bft) O 90 11,4 C 20,1 C 5,8 km/h (2 Bft)
24.06.2012 20:03 19,5 C 59 % 0,0 l/m 4,7 km/h (1 Bft) N 360 11,3 C 19,9 C 4,8 km/h (1 Bft)
24.06.2012 20:08 19,4 C 59 % 0,0 l/m 4,8 km/h (1 Bft) S-SO 157 11,2 C 19,8 C 3,9 km/h (1 Bft)
24.06.2012 20:13 19,2 C 60 % 0,0 l/m 5,8 km/h (2 Bft) O 90 11,2 C 19,6 C 9,3 km/h (2 Bft)
24.06.2012 20:18 19,1 C 60 % 0,0 l/m 6,1 km/h (2 Bft) O-SO 112 11,1 C 19,6 C 8,0 km/h (2 Bft)
24.06.2012 20:23 19,1 C 59 % 0,0 l/m 7,4 km/h (2 Bft) O-SO 112 10,9 C 19,1 C 9,5 km/h (2 Bft)
24.06.2012 20:28 19,1 C 59 % 0,0 l/m 7,2 km/h (2 Bft) O 90 10,9 C 19,1 C 5,0 km/h (1 Bft)
24.06.2012 20:33 19,0 C 60 % 0,0 l/m 6,0 km/h (2 Bft) NO 45 11,1 C 19,4 C 2,4 km/h (1 Bft)
24.06.2012 20:38 18,9 C 60 % 0,0 l/m 5,3 km/h (1 Bft) SW 225 11,0 C 19,3 C 2,9 km/h (1 Bft)
24.06.2012 20:43 18,7 C 60 % 0,0 l/m 4,3 km/h (1 Bft) SO 135 10,8 C 19,1 C 2,3 km/h (1 Bft)
24.06.2012 20:48 18,6 C 60 % 0,0 l/m 3,2 km/h (1 Bft) NO 45 10,7 C 19,0 C 4,0 km/h (1 Bft)
24.06.2012 20:53 18,5 C 61 % 0,0 l/m 2,4 km/h (1 Bft) O-SO 112 10,8 C 19,0 C 5,6 km/h (1 Bft)
24.06.2012 20:58 18,5 C 61 % 0,0 l/m 3,1 km/h (1 Bft) O-SO 112 10,8 C 19,0 C 5,8 km/h (2 Bft)
24.06.2012 21:03 18,5 C 61 % 0,0 l/m 3,9 km/h (1 Bft) O-SO 112 10,8 C 19,0 C 2,4 km/h (1 Bft)
24.06.2012 21:08 18,4 C 60 % 0,0 l/m 2,1 km/h (1 Bft) NO 45 10,5 C 18,8 C 0,0 km/h (0 Bft)
24.06.2012 21:13 18,1 C 61 % 0,0 l/m 1,0 km/h (0 Bft) SO 135 10,5 C 18,5 C 0,0 km/h (0 Bft)
24.06.2012 21:18 17,9 C 62 % 0,0 l/m 0,6 km/h (0 Bft) O 90 10,5 C 18,4 C 0,0 km/h (0 Bft)
24.06.2012 21:23 18,0 C 62 % 0,0 l/m 0,3 km/h (0 Bft) SO 135 10,6 C 18,1 C 0,0 km/h (0 Bft)
24.06.2012 21:28 18,0 C 62 % 0,0 l/m 0,8 km/h (0 Bft) SO 135 10,6 C 18,1 C 4,5 km/h (1 Bft)
24.06.2012 21:35 18,3 C 61 % 0,0 l/m 1,3 km/h (1 Bft) O-SO 112 10,6 C 18,3 C 6,0 km/h (2 Bft)
24.06.2012 21:40 18,3 C 61 % 0,0 l/m 1,3 km/h (1 Bft) O-SO 112 10,6 C 18,3 C 6,0 km/h (2 Bft)
24.06.2012 21:45 18,2 C 61 % 0,0 l/m 1,6 km/h (1 Bft) N 360 10,6 C 18,3 C 3,4 km/h (1 Bft)
24.06.2012 21:50 18,1 C 61 % 0,0 l/m 1,4 km/h (1 Bft) O-SO 112 10,5 C 18,4 C 0,0 km/h (0 Bft)
24.06.2012 21:55 18,1 C 59 % 0,0 l/m 1,4 km/h (1 Bft) N-NO 22 10,0 C 18,4 C 0,0 km/h (0 Bft)
24.06.2012 22:00 18,1 C 59 % 0,0 l/m 1,4 km/h (1 Bft) NO 45 10,0 C 18,5 C 4,3 km/h (1 Bft)
24.06.2012 22:05 18,0 C 59 % 0,0 l/m 1,8 km/h (1 Bft) N-NO 22 9,9 C 18,5 C 2,7 km/h (1 Bft)
24.06.2012 22:10 17,9 C 58 % 0,0 l/m 1,9 km/h (1 Bft) N-NO 22 9,5 C 18,4 C 0,0 km/h (0 Bft)
24.06.2012 22:15 17,9 C 58 % 0,0 l/m 1,8 km/h (1 Bft) O-NO 67 9,5 C 18,4 C 4,0 km/h (1 Bft)
24.06.2012 22:20 17,9 C 58 % 0,0 l/m 0,8 km/h (0 Bft) N 360 9,5 C 18,4 C 0,0 km/h (0 Bft)
24.06.2012 22:25 18,0 C 57 % 0,0 l/m 0,8 km/h (0 Bft) SO 135 9,4 C 18,4 C 0,0 km/h (0 Bft)
24.06.2012 22:30 18,0 C 56 % 0,0 l/m 0,8 km/h (0 Bft) O-SO 112 9,1 C 18,2 C 1,9 km/h (1 Bft)
24.06.2012 22:35 18,0 C 55 % 0,0 l/m 1,0 km/h (0 Bft) N-NO 22 8,8 C 18,2 C 0,0 km/h (0 Bft)
24.06.2012 22:40 17,9 C 55 % 0,0 l/m 1,4 km/h (1 Bft) O 90 8,7 C 18,3 C 7,6 km/h (2 Bft)
24.06.2012 22:45 18,1 C 53 % 0,0 l/m 2,3 km/h (1 Bft) N 360 8,4 C 18,3 C 3,9 km/h (1 Bft)
24.06.2012 22:50 17,7 C 56 % 0,0 l/m 2,9 km/h (1 Bft) O 90 8,8 C 18,4 C 4,7 km/h (1 Bft)
24.06.2012 22:55 17,6 C 55 % 0,0 l/m 2,3 km/h (1 Bft) N-NO 22 8,5 C 18,4 C 2,1 km/h (1 Bft)
24.06.2012 23:00 17,6 C 56 % 0,0 l/m 1,6 km/h (1 Bft) O 90 8,7 C 18,1 C 2,1 km/h (1 Bft)
24.06.2012 23:05 17,4 C 57 % 0,0 l/m 1,6 km/h (1 Bft) N-NO 22 8,8 C 18,0 C 3,2 km/h (1 Bft)
24.06.2012 23:10 17,3 C 57 % 0,0 l/m 1,4 km/h (1 Bft) N-NW 337 8,7 C 17,8 C 1,8 km/h (1 Bft)
24.06.2012 23:15 17,3 C 57 % 0,0 l/m 1,4 km/h (1 Bft) N 360 8,7 C 17,8 C 2,1 km/h (1 Bft)
24.06.2012 23:18 17,3 C 57 % 0,0 l/m 2,1 km/h (1 Bft) O-SO 112 8,7 C 17,8 C 4,5 km/h (1 Bft)
24.06.2012 23:23 17,3 C 58 % 0,0 l/m 2,7 km/h (1 Bft) SO 135 9,0 C 17,8 C 3,7 km/h (1 Bft)
24.06.2012 23:28 17,3 C 58 % 0,0 l/m 2,6 km/h (1 Bft) O-SO 112 9,0 C 17,9 C 4,0 km/h (1 Bft)
24.06.2012 23:33 17,5 C 57 % 0,0 l/m 4,0 km/h (1 Bft) O 90 8,9 C 18,0 C 13,5 km/h (3 Bft)
24.06.2012 23:38 17,9 C 52 % 0,0 l/m 6,1 km/h (2 Bft) O 90 7,9 C 18,1 C 18,2 km/h (3 Bft)
24.06.2012 23:43 18,5 C 51 % 0,0 l/m 11,4 km/h (2 Bft) SO 135 8,2 C 17,0 C 17,7 km/h (3 Bft)
24.06.2012 23:48 18,7 C 50 % 0,0 l/m 12,4 km/h (3 Bft) N-NW 337 8,1 C 16,9 C 12,1 km/h (2 Bft)
24.06.2012 23:53 18,7 C 52 % 0,0 l/m 11,7 km/h (2 Bft) SO 135 8,6 C 17,2 C 15,9 km/h (3 Bft)
24.06.2012 23:58 18,8 C 52 % 0,0 l/m 12,4 km/h (3 Bft) SO 135 8,7 C 17,0 C 29,6 km/h (5 Bft)
_ Min-Zeit 04:05 13:10 - 07:55 - - 04:05 04:50 22:35
Minimum _ 9,0 C 37 % - 0,0 km/h (0 Bft) - - 7,4 C 8,5 C 0,0 km/h (0 Bft)
_ Max-Zeit 14:40 06:25 23:58 23:58 - - 16:55 09:35 23:58
Maximum _ 26,9 C 91 % 0,0 l/m 12,4 km/h
SO (3 Bft)
- - 13,9 C 28,6 C 29,6 km/h
SO (5 Bft)
Durchschnitt _ 18,9 C 61 % #0,0 l/m 3,2 km/h (1 Bft) SO - 10,6 C 19,5 C 4,2 km/h (1 Bft)